Location: Unspecified
(0.0000°N, 0.0000°E)
Time: 02:46:46
(UTC+00:00)

STARLINK-1273 - Pass Details

Date: 22 February 2026
Orbit: 434 x 436 km, 53.1° (Epoch: 6 March)

Event Time Altitude Azimuth Distance (km) Brightness Sun altitude
Exits shadow 04:26:30 20° 151° (SSE) 1,068 5.5 -26.3°
Maximum altitude 04:27:31 23° 124° (SE) 976 5.5 -26.0°
Drops below altitude 10° 04:30:18 10° 70° (ENE) 1,532 6.6 -25.4°
Sets 04:32:41 0° 55° (NE) 2,399 7.5 -24.8°
